Wind_Speed
6 4 7 12 11 11 9 7 8 4 4 5 9 10 10 12 9 10 10 10 9 9 11 9 8 10 11 11 13 14 20 22 24 22 20 20 22 21 20 18 17 18 17 16
3 9 12 9 9 6 9 9 9 8 7 3 7 11 9 13 14 17 14 11 11 9 8 11 12 13 13 14 14 17 17 14 10 12 17 16 21 21 22 22 21 20 21 21
11 3 4 13 5 5 7 8 7 8 4 4 6 8 13 11 14 14 10 10 10 14 11 9 15 15 15 15 14 14 14 15 15 16 19 22 24 22 21 21 23 22 22 22
10 13 3 6 8 8 8 7 11 7 3 4 6 5 7 9 13 16 15 10 11 13 10 12 17 19 18 17 16 17 15 15 17 20 25 22 22 22 18 20 21 21 20 21
5 7 9 7 6 8 4 5 0 3 6 5 5 7 6 13 16 16 16 10 10 12 14 12 18 22 20 20 19 20 21 22 18 18 20 23 25 23 21 20 21 20 20 19
4 2 4 5 4 1 9 5 2 1 1 6 13 13 6 12 16 9 11 13 12 13 12 15 20 23 21 20 21 22 22 22 21 22 20 24 26 25 23 19 19 17 18 17
6 9 4 3 5 4 5 6 2 2 1 7 1 10 16 5 3 6 17 17 15 15 14 13 15 20 22 23 22 22 22 21 20 20 21 22 22 22 21 18 18 16 15 15
11 6 17 9 12 7 9 9 5 7 5 4 3 7 6 0 6 4 13 16 16 16 14 14 18 19 23 25 24 23 24 25 23 23 23 22 21 21 18 17 16 14 14 14
7 7 6 6 5 7 5 8 10 4 1 2 6 7 8 5 3 1 10 15 17 17 15 15 19 21 25 28 27 27 26 24 24 25 25 24 22 20 19 18 16 15 14 13
2 3 1 3 5 4 4 4 4 2 3 6 5 10 10 6 11 8 12 17 17 17 16 15 20 23 25 27 27 25 25 27 26 25 25 23 21 20 20 19 17 16 14 12
4 2 1 6 8 12 4 4 5 4 5 4 5 7 4 14 15 18 15 17 18 19 18 16 21 24 27 29 29 28 27 27 26 25 24 23 22 21 20 19 18 16 14 12
11 1 5 9 4 0 5 8 9 5 6 6 2 20 4 6 10 13 16 16 17 18 17 16 22 24 26 28 31 30 29 28 27 26 25 24 24 23 22 20 19 17 15 12
12 5 0 4 2 2 6 8 16 13 1 21 5 15 3 5 5 9 13 14 15 16 16 15 18 23 25 27 30 31 31 30 29 27 25 25 25 25 23 22 20 18 16 13
14 5 11 17 6 8 7 11 18 18 11 6 25 19 3 5 5 7 10 14 15 16 17 15 15 22 25 27 28 30 32 32 31 30 29 29 28 27 24 22 21 20 17 15
12 11 11 21 18 6 6 10 20 24 28 16 27 24 20 10 12 15 10 12 14 16 18 19 17 17 25 26 27 28 31 33 34 32 32 31 28 25 24 24 22 21 19 17
1 8 12 22 12 15 19 14 18 22 24 27 30 34 4 11 12 9 13 15 16 17 19 18 16 18 24 28 28 30 31 34 34 35 34 31 29 28 27 25 25 24 21 19
7 3 5 19 8 13 11 35 23 24 25 23 25 36 11 11 10 11 12 13 13 12 15 15 15 20 24 28 29 31 31 34 35 36 34 32 31 30 29 29 27 26 24 22
11 14 8 10 5 12 12 9 26 29 30 25 27 6 5 9 7 7 10 16 13 10 9 9 13 17 24 27 31 30 33 34 37 35 33 31 31 31 31 32 30 28 26 25
15 13 7 7 13 14 14 5 9 12 26 23 24 14 8 7 5 2 3 6 8 8 10 17 21 22 25 29 34 34 34 33 35 35 33 33 34 34 34 32 32 31 28 26
2 17 13 4 7 11 3 4 0 8 16 12 17 17 11 10 10 5 8 8 9 13 17 19 23 26 28 29 31 31 30 31 32 33 33 32 33 35 34 33 33 31 30 28
4 5 15 15 7 5 5 6 1 6 6 2 0 7 11 10 4 6 9 7 8 13 18 22 23 25 27 25 27 28 28 31 31 28 27 26 28 31 32 32 30 30 29 28
7 7 4 5 4 9 6 3 9 3 3 1 4 5 6 6 6 6 8 9 9 10 17 21 22 21 20 23 25 26 27 25 23 21 22 22 23 25 27 28 28 27 27 28
5 6 5 6 3 1 1 1 2 1 4 3 5 4 7 8 5 6 7 9 8 16 19 19 21 19 17 20 22 23 21 18 19 19 20 21 21 23 24 25 26 26 26 27
2 1 2 4 1 2 2 2 4 2 3 3 4 5 7 7 8 7 7 7 7 14 18 19 20 18 17 16 16 15 14 15 19 20 21 21 22 22 22 22 24 26 27 28
2 6 5 1 2 2 7 6 4 3 1 3 4 4 6 9 7 7 6 6 9 16 16 18 16 14 13 13 13 14 16 17 20 19 19 19 19 21 22 23 24 25 25 25
4 5 4 4 7 4 6 9 7 6 5 4 4 4 3 6 8 6 6 10 15 15 15 14 14 13 11 9 8 11 15 18 19 19 19 19 19 19 19 20 20 15 14 15
Wind_Direction
203 205 206 212 216 248 290 303 297 287 143 191 223 244 230 191 202 217 194 178 179 171 138 154 152 144 134 126 125 131 131 128 125 117 119 116 107 107 103 102 106 104 105 102
106 234 237 234 244 249 239 262 265 286 128 191 267 265 263 182 205 205 205 181 172 139 149 162 163 156 151 140 133 131 129 125 130 142 130 122 117 106 104 99 94 96 98 97
207 191 223 229 225 230 244 238 250 244 153 224 293 272 254 251 213 204 213 178 168 157 162 167 163 159 148 148 148 146 151 155 154 148 139 124 115 109 105 98 95 89 90 89
234 246 202 211 212 188 247 221 230 258 310 240 148 280 260 269 241 197 200 177 158 156 154 159 167 157 155 150 150 151 151 150 144 142 133 128 127 118 111 106 103 99 95 92
210 166 163 198 189 192 216 30 104 234 249 300 266 272 252 223 252 217 192 173 162 160 154 164 165 159 155 157 155 155 151 144 146 149 152 145 131 127 125 118 109 102 97 91
244 336 202 198 64 22 129 90 90 33 206 254 229 226 225 238 229 218 180 179 166 156 154 155 155 151 153 159 160 156 154 151 153 156 154 146 138 137 131 128 119 114 108 105
209 216 173 155 104 17 170 135 251 293 231 242 284 225 245 251 315 202 182 178 169 161 158 152 152 157 162 163 161 159 155 146 147 147 145 145 143 142 140 141 133 129 120 110
197 222 175 191 208 161 188 182 162 234 213 265 332 237 244 306 38 14 162 166 165 165 167 161 167 167 167 169 166 161 158 149 152 148 144 147 148 146 145 147 142 138 131 119
192 227 101 135 192 158 181 213 227 352 58 334 218 261 283 166 158 48 149 161 172 171 170 165 169 170 171 174 173 170 164 157 158 156 155 154 156 157 155 153 152 148 142 130
269 213 3 61 73 320 197 161 102 195 236 246 247 248 242 225 220 190 187 180 175 172 171 171 175 174 175 179 176 175 172 167 166 166 165 162 161 162 158 156 157 157 149 143
177 163 114 122 204 178 134 214 220 168 188 225 279 257 302 201 197 195 194 185 181 179 180 177 177 175 174 180 181 179 179 173 172 172 170 167 167 166 164 165 165 161 156 153
184 165 174 207 123 132 223 184 192 170 225 234 217 258 13 7 186 176 186 183 181 183 182 180 176 171 173 178 184 185 182 181 180 177 174 173 172 172 173 172 172 170 169 166
166 184 159 313 93 18 199 200 207 218 69 233 198 256 333 11 77 169 170 180 183 179 180 180 177 179 178 180 183 185 186 187 184 182 182 181 180 180 180 179 181 179 180 180
155 159 196 228 222 144 194 201 209 203 227 201 233 247 221 218 195 181 186 181 178 180 182 183 185 186 186 184 182 183 186 191 188 186 190 189 189 189 186 188 188 189 191 194
178 212 221 241 238 231 189 198 206 210 224 213 251 242 240 223 202 209 184 170 175 183 184 188 189 188 186 184 183 184 186 191 193 192 195 197 196 195 192 197 197 198 201 204
289 234 212 246 225 239 252 240 211 222 231 239 251 255 203 231 202 154 178 175 184 186 191 192 189 183 187 187 184 184 186 189 195 197 202 201 200 198 200 204 206 207 206 211
147 136 165 246 209 242 250 235 231 228 226 223 238 249 212 232 184 183 178 174 185 193 193 190 189 189 190 188 184 185 185 191 196 202 205 203 204 203 205 211 211 213 215 218
181 194 200 247 146 219 247 197 218 226 235 225 240 236 189 223 200 167 167 170 171 165 168 179 182 180 190 189 189 184 187 193 198 203 206 205 204 207 211 214 216 219 221 226
191 184 214 223 228 261 280 182 148 182 244 227 235 236 182 146 99 250 181 132 150 158 179 174 174 179 186 192 190 186 187 192 197 204 208 209 209 210 212 216 219 222 225 230
190 198 204 170 223 228 294 306 7 99 262 192 205 218 158 148 191 204 159 146 156 169 158 154 174 179 182 188 186 183 186 192 200 208 215 216 216 216 219 223 224 226 229 235
158 193 208 219 229 268 216 232 278 144 245 301 98 144 152 186 206 152 135 114 115 123 141 156 163 165 176 177 181 182 187 199 212 215 216 218 220 223 227 230 230 231 232 234
168 174 193 215 232 248 174 17 169 211 347 224 108 126 127 119 107 116 111 117 121 125 142 157 153 157 168 175 179 183 194 207 208 208 210 214 219 223 226 228 229 229 228 230
198 193 186 201 203 259 113 256 17 194 170 185 135 130 128 125 131 132 132 135 140 144 148 154 153 154 167 180 187 188 204 202 197 195 202 209 214 218 221 221 221 220 223 227
242 179 150 135 184 186 268 251 260 324 26 73 90 135 146 150 148 125 129 135 134 142 150 154 155 160 168 184 196 210 208 203 198 198 202 205 209 213 218 221 225 225 225 228
171 141 135 24 319 333 279 259 263 280 71 94 98 132 149 139 141 140 138 141 151 151 155 165 168 178 195 202 213 221 223 214 206 207 207 207 211 218 221 227 231 232 238 242
192 159 170 219 178 182 205 218 225 239 227 178 132 107 97 133 144 136 151 164 161 160 163 173 187 197 200 204 214 224 226 221 216 210 211 214 217 222 231 234 232 233 244 244
Height
812 822 826 816 813 809 810 815 821 802 810 814 817 815 806 810 814 815 814 818 823 827 832 836 839 840 842 842 844 845 847 850 851 854 855 857 860 862 865 866 868 867 869 870
821 823 806 802 802 808 812 819 822 809 812 815 814 812 800 801 802 801 803 809 815 824 830 834 837 838 840 842 845 847 849 850 853 855 858 859 862 866 868 869 871 872 872 872
812 801 795 803 807 812 812 818 819 818 814 814 821 819 805 791 788 793 795 799 806 816 825 831 834 836 839 841 844 846 848 849 850 853 857 860 863 868 870 872 874 876 876 877
804 795 801 802 808 810 821 804 809 814 822 838 816 832 798 787 785 788 788 795 802 810 819 826 830 833 835 838 841 844 846 849 851 852 854 859 862 867 873 874 876 877 878 880
798 800 805 808 802 802 810 806 806 812 824 826 823 831 792 781 783 779 781 791 797 804 812 820 825 828 832 835 839 842 844 847 849 852 854 855 860 866 871 874 875 877 878 882
794 795 795 795 803 799 807 813 815 819 827 841 819 819 792 778 768 763 778 786 793 802 809 817 823 827 831 834 837 840 842 845 848 850 852 855 859 865 869 874 874 878 876 879
800 798 794 795 807 806 805 818 838 847 851 835 800 810 778 762 758 759 768 779 788 798 806 814 820 825 829 832 836 840 842 845 848 851 854 857 861 864 868 872 874 878 879 881
798 802 790 791 786 803 813 810 834 836 834 823 815 808 779 765 767 760 762 773 784 794 802 810 816 821 825 830 834 837 840 843 846 849 852 857 860 864 868 871 873 877 880 880
778 782 774 780 783 788 809 815 794 819 845 838 801 782 763 770 771 769 771 776 782 791 799 807 814 818 822 825 829 834 838 841 844 846 850 854 858 862 866 869 872 876 879 881
758 773 777 790 786 789 794 791 818 823 841 830 787 776 764 771 767 773 771 772 778 787 795 802 808 813 819 824 828 833 837 838 841 845 848 852 856 860 864 868 872 876 877 880
759 768 793 791 792 785 800 799 795 796 808 814 801 767 733 739 745 758 762 767 773 780 788 795 801 807 813 819 824 829 833 835 839 842 846 850 854 859 863 866 869 873 875 878
751 766 790 785 770 771 771 781 785 802 803 793 797 737 737 739 737 746 755 760 768 775 782 789 796 803 809 814 820 825 828 832 837 841 843 846 851 855 860 863 867 870 873 874
748 771 786 782 781 779 778 772 769 772 794 764 794 734 747 746 741 745 752 759 764 772 780 787 793 797 802 808 814 820 825 829 834 839 843 847 849 853 857 860 864 866 870 873
734 755 755 747 744 753 773 767 764 768 773 771 743 738 747 746 748 749 751 754 760 766 774 781 787 791 797 802 808 814 819 824 828 832 837 841 844 848 853 857 861 864 867 869
735 748 745 733 735 742 752 756 756 757 741 759 719 737 729 737 743 740 742 751 757 762 767 771 777 784 791 798 804 810 815 819 825 830 834 837 842 847 850 854 857 861 863 867
737 738 738 735 741 743 745 742 744 746 743 739 729 715 719 719 723 735 738 745 750 753 758 764 770 778 784 790 795 802 808 813 820 824 828 833 837 840 845 850 854 857 859 863
741 748 751 733 741 747 747 715 732 728 729 728 732 692 718 720 725 729 734 739 745 751 755 760 765 770 778 783 790 795 802 808 814 818 822 827 832 836 840 845 849 853 855 858
734 743 743 727 741 727 692 695 703 712 703 708 709 720 720 714 716 720 723 728 736 745 753 758 764 768 775 781 787 792 797 802 808 813 818 823 827 831 835 839 842 846 850 853
712 730 723 718 711 697 690 710 708 709 689 694 698 704 718 724 724 725 725 725 735 740 747 750 755 764 772 776 780 785 792 797 803 808 812 817 821 824 829 833 836 840 844 848
722 709 714 721 701 692 697 703 693 693 692 690 691 694 717 720 720 721 726 728 734 740 741 744 753 760 766 772 777 783 789 795 798 801 806 812 816 821 824 828 831 834 837 840
716 712 704 699 696 700 711 709 696 704 701 707 699 703 710 706 706 711 718 722 729 733 741 748 753 757 764 770 776 781 786 790 792 797 803 808 812 815 818 822 826 830 832 835
703 708 708 705 696 689 706 706 698 703 707 706 702 704 709 712 715 718 720 726 733 739 746 751 754 760 766 770 774 779 782 784 789 794 798 802 806 810 814 818 821 824 826 829
698 693 695 694 691 709 707 706 704 704 705 700 702 705 709 715 717 722 727 731 736 740 746 751 756 761 766 769 773 776 779 783 787 790 793 797 803 806 809 812 816 818 820 822
700 698 700 701 712 711 711 707 708 705 703 703 704 708 712 717 723 726 730 735 739 744 748 752 756 761 765 769 772 775 778 781 785 787 791 794 798 802 805 808 811 812 813 815
696 699 704 720 716 716 709 708 706 703 704 704 707 710 713 717 723 726 732 737 740 744 748 752 754 757 762 766 769 772 775 778 782 786 788 791 793 797 800 802 804 806 808 812
696 692 698 696 698 697 696 699 699 702 704 708 712 714 715 716 721 725 731 735 738 742 745 750 754 757 761 764 768 771 774 777 779 783 785 786 789 792 795 798 801 804 807 809